Weather in Chilliwack

Canada     49°10′11″N   121°57′08″W
temp.,
°C
wind,
m/s
gust,
m/s
humid.,
%
clouds,
%
prec.,
mm/h
press.,
hPa
HPBL,
m
21 april, wed
wed2123:00+8nne23715 0.0 102055
02:00+7nne24695 0.0 102068
05:00+6nne247131 0.0 102066
08:00+10nne235748 0.0 1019193
11:00+17sw12422 0.0 1016873
14:00+18sw4438100 0.0 10141638
17:00+17sw3444100 0.0 10121298
20:00+11w117161 0.0 101215
22 april, thu
thu2223:00+8nne11814 0.0 101217
02:00+7nne23865 0.0 101252
05:00+6nne238630 0.0 101256
08:00+10n12645 0.0 1012258
11:00+15ssw325142 0.0 10121175
14:00+17sw334832 0.3 10101705
17:00+15sw336011 0.7 1010832
20:00+10sw238480 0.9 101171
23 april, fri
fri2323:00+7nnw119360 0.9 101310
02:00+8nne1187100 0.0 101344
05:00+8wnw0091100 0.2 101322
08:00+8sw1296100 1.6 1013171
11:00+8wsw1291100 2.2 1013327
14:00+9w1285100 0.3 1013452
17:00+9wnw1186100 0.4 1011246
20:00+8n1191100 0.1 101024
24 april, sat
sat2423:00+7wsw1196100 1.6 101028
02:00+7wsw1196100 2.1 100846
05:00+6w1196100 4.6 100736
08:00+6wsw1297100 2.9 1006146
11:00+5wsw2396100 5.9 1005790
14:00+4wnw1296100 2.8 1005582
17:00+4wnw1197100 4.9 1004198
20:00+3nnw1198100 6.0 1004292
25 april, sun
sun2523:00+4se1299100 9.7 1004245
02:00+4ssw119876 0.8 1004114
05:00+2sw119772 0.9 100411
08:00+4ssw0196100 0.1 1004287
11:00+5sw1196100 0.7 1004615
14:00+6wsw128879 0.5 1004490
17:00+7sw2387100 1.3 1003355
20:00+5sw2495100 0.8 1004239